Time,TemperatureF,DewpointF,PressureIn,WindDirection,WindDirectionDegrees,WindSpeedMPH,WindSpeedGustMPH,Humidity,HourlyPrecipIn,Conditions,Clouds,dailyrainin,SoftwareType,DateUTC
2013-02-04 00:02:00,39.4,3.4,29.82,SW,225,3.8,7.6,22,0.00,,,0.00,WUHU216HW,2013-02-04 07:02:00,
2013-02-04 00:07:00,40.0,3.9,29.83,West,270,5.6,7.6,22,0.00,,,0.00,WUHU216HW,2013-02-04 07:07:00,
2013-02-04 00:12:00,40.0,3.9,29.82,WSW,248,3.4,5.6,22,0.00,,,0.00,WUHU216HW,2013-02-04 07:12:00,
2013-02-04 00:17:00,40.3,4.2,29.82,SSW,203,4.7,7.6,22,0.00,,,0.00,WUHU216HW,2013-02-04 07:17:00,
2013-02-04 00:22:00,40.1,4.1,29.82,WNW,293,8.3,10.7,22,0.00,,,0.00,WUHU216HW,2013-02-04 07:22:00,
2013-02-04 00:27:00,40.1,4.1,29.82,WSW,248,3.8,10.7,22,0.00,,,0.00,WUHU216HW,2013-02-04 07:27:00,
2013-02-04 00:32:00,40.3,3.3,29.82,West,270,2.5,10.7,21,0.00,,,0.00,WUHU216HW,2013-02-04 07:32:00,
2013-02-04 00:37:00,40.5,3.5,29.82,WNW,293,4.7,6.0,21,0.00,,,0.00,WUHU216HW,2013-02-04 07:37:00,
2013-02-04 00:42:00,40.7,3.6,29.82,WSW,248,1.3,7.2,21,0.00,,,0.00,WUHU216HW,2013-02-04 07:42:00,
2013-02-04 00:47:00,40.7,2.7,29.82,WNW,293,6.9,7.2,20,0.00,,,0.00,WUHU216HW,2013-02-04 07:47:00,
2013-02-04 00:52:00,40.7,3.6,29.82,West,270,4.9,6.9,21,0.00,,,0.00,WUHU216HW,2013-02-04 07:52:00,
2013-02-04 00:57:00,40.3,3.3,29.82,South,180,4.9,6.5,21,0.00,,,0.00,WUHU216HW,2013-02-04 07:57:00,
2013-02-04 01:02:00,40.1,3.2,29.82,ESE,113,8.5,8.5,21,0.00,,,0.00,WUHU216HW,2013-02-04 08:02:00,
2013-02-04 01:07:00,40.0,3.0,29.82,North,0,1.8,8.5,21,0.00,,,0.00,WUHU216HW,2013-02-04 08:07:00,
2013-02-04 01:12:00,40.0,3.0,29.82,WSW,248,4.7,4.7,21,0.00,,,0.00,WUHU216HW,2013-02-04 08:12:00,
2013-02-04 01:17:00,40.0,3.0,29.82,NW,315,4.3,8.5,21,0.00,,,0.00,WUHU216HW,2013-02-04 08:17:00,
2013-02-04 01:22:00,39.8,3.7,29.82,SSE,158,4.5,8.5,22,0.00,,,0.00,WUHU216HW,2013-02-04 08:22:00,
2013-02-04 01:27:00,39.8,3.7,29.82,WNW,293,2.5,4.7,22,0.00,,,0.00,WUHU216HW,2013-02-04 08:27:00,
2013-02-04 01:32:00,39.8,3.7,29.82,SW,225,9.2,9.2,22,0.00,,,0.00,WUHU216HW,2013-02-04 08:32:00,
2013-02-04 01:37:00,39.8,3.7,29.83,SSW,203,4.5,9.2,22,0.00,,,0.00,WUHU216HW,2013-02-04 08:37:00,
2013-02-04 01:42:00,39.8,3.7,29.83,SSW,203,2.5,5.6,22,0.00,,,0.00,WUHU216HW,2013-02-04 08:42:00,
2013-02-04 01:47:00,39.6,3.6,29.83,West,270,5.4,6.3,22,0.00,,,0.00,WUHU216HW,2013-02-04 08:47:00,
2013-02-04 01:52:00,39.6,4.5,29.83,South,180,3.4,8.7,23,0.00,,,0.00,WUHU216HW,2013-02-04 08:52:00,
2013-02-04 01:57:00,39.6,4.5,29.83,WSW,248,3.8,8.7,23,0.00,,,0.00,WUHU216HW,2013-02-04 08:57:00,
2013-02-04 02:02:00,39.6,4.5,29.83,SE,135,7.2,9.2,23,0.00,,,0.00,WUHU216HW,2013-02-04 09:02:00,
2013-02-04 02:07:00,39.8,4.6,29.83,SW,225,3.1,9.2,23,0.00,,,0.00,WUHU216HW,2013-02-04 09:07:00,
2013-02-04 02:12:00,39.6,4.5,29.83,NNW,338,1.8,4.7,23,0.00,,,0.00,WUHU216HW,2013-02-04 09:12:00,
2013-02-04 02:17:00,39.6,4.5,29.83,SW,225,6.5,6.5,23,0.00,,,0.00,WUHU216HW,2013-02-04 09:17:00,
2013-02-04 02:22:00,39.6,4.5,29.83,SSW,203,3.4,8.1,23,0.00,,,0.00,WUHU216HW,2013-02-04 09:22:00,
2013-02-04 02:27:00,39.2,4.1,29.83,WNW,293,0.2,8.1,23,0.00,,,0.00,WUHU216HW,2013-02-04 09:27:00,
2013-02-04 02:32:00,39.1,4.0,29.83,WSW,248,1.8,1.8,23,0.00,,,0.00,WUHU216HW,2013-02-04 09:32:00,
2013-02-04 02:37:00,38.7,3.7,29.83,West,270,1.1,4.0,23,0.00,,,0.00,WUHU216HW,2013-02-04 09:37:00,
2013-02-04 02:42:00,39.2,4.1,29.83,NW,315,4.0,8.3,23,0.00,,,0.00,WUHU216HW,2013-02-04 09:42:00,
2013-02-04 02:47:00,39.8,4.6,29.83,North,0,1.1,8.3,23,0.00,,,0.00,WUHU216HW,2013-02-04 09:47:00,
2013-02-04 02:52:00,39.8,4.6,29.82,SSW,203,0.2,4.7,23,0.00,,,0.00,WUHU216HW,2013-02-04 09:52:00,
2013-02-04 02:57:00,39.4,4.3,29.82,SE,135,1.1,4.7,23,0.00,,,0.00,WUHU216HW,2013-02-04 09:57:00,
2013-02-04 03:02:00,39.1,4.0,29.82,SSE,158,2.0,2.9,23,0.00,,,0.00,WUHU216HW,2013-02-04 10:02:00,
2013-02-04 03:07:00,38.5,4.4,29.82,SSW,203,2.7,2.7,24,0.00,,,0.00,WUHU216HW,2013-02-04 10:07:00,
2013-02-04 03:12:00,38.2,4.2,29.81,WSW,248,0.0,2.7,24,0.00,,,0.00,WUHU216HW,2013-02-04 10:12:00,
2013-02-04 03:17:00,37.8,3.9,29.81,SSE,158,1.3,1.3,24,0.00,,,0.00,WUHU216HW,2013-02-04 10:17:00,
2013-02-04 03:22:00,37.4,3.5,29.81,SSE,158,1.1,1.3,24,0.00,,,0.00,WUHU216HW,2013-02-04 10:22:00,
2013-02-04 03:27:00,36.9,4.0,29.81,WSW,248,3.4,3.4,25,0.00,,,0.00,WUHU216HW,2013-02-04 10:27:00,
2013-02-04 03:32:00,36.5,2.8,29.81,ESE,113,0.2,3.4,24,0.00,,,0.00,WUHU216HW,2013-02-04 10:32:00,
2013-02-04 03:37:00,36.2,3.3,29.81,WNW,293,0.9,3.4,25,0.00,,,0.00,WUHU216HW,2013-02-04 10:37:00,
2013-02-04 03:42:00,36.2,2.4,29.81,SSE,158,0.0,2.5,24,0.00,,,0.00,WUHU216HW,2013-02-04 10:42:00,
2013-02-04 03:47:00,35.8,3.9,29.82,WSW,248,2.5,2.5,26,0.00,,,0.00,WUHU216HW,2013-02-04 10:47:00,
2013-02-04 03:52:00,35.6,3.8,29.81,WSW,248,0.7,2.5,26,0.00,,,0.00,WUHU216HW,2013-02-04 10:52:00,
2013-02-04 03:57:00,35.3,3.4,29.81,SSW,203,1.3,2.9,26,0.00,,,0.00,WUHU216HW,2013-02-04 10:57:00,
2013-02-04 04:02:00,34.9,4.1,29.81,West,270,1.1,2.9,27,0.00,,,0.00,WUHU216HW,2013-02-04 11:02:00,
2013-02-04 04:07:00,35.3,4.3,29.81,SSE,158,1.6,2.5,27,0.00,,,0.00,WUHU216HW,2013-02-04 11:07:00,
2013-02-04 04:12:00,34.9,4.1,29.82,WNW,293,1.6,2.2,27,0.00,,,0.00,WUHU216HW,2013-02-04 11:12:00,
2013-02-04 04:17:00,34.6,3.7,29.82,WSW,248,0.4,2.0,27,0.00,,,0.00,WUHU216HW,2013-02-04 11:17:00,
2013-02-04 04:22:00,34.2,3.4,29.81,SSE,158,3.4,4.7,27,0.00,,,0.00,WUHU216HW,2013-02-04 11:22:00,
2013-02-04 04:27:00,34.2,3.4,29.81,South,180,0.2,4.7,27,0.00,,,0.00,WUHU216HW,2013-02-04 11:27:00,
2013-02-04 04:32:00,34.2,4.3,29.82,SSE,158,0.7,2.7,28,0.00,,,0.00,WUHU216HW,2013-02-04 11:32:00,
2013-02-04 04:37:00,34.0,4.1,29.82,SSE,158,0.2,1.3,28,0.00,,,0.00,WUHU216HW,2013-02-04 11:37:00,
2013-02-04 04:42:00,33.8,4.0,29.82,SSW,203,0.0,2.5,28,0.00,,,0.00,WUHU216HW,2013-02-04 11:42:00,
2013-02-04 04:47:00,33.8,4.0,29.82,SSW,203,0.4,2.5,28,0.00,,,0.00,WUHU216HW,2013-02-04 11:47:00,
2013-02-04 04:52:00,33.8,4.0,29.82,WSW,248,1.8,1.8,28,0.00,,,0.00,WUHU216HW,2013-02-04 11:52:00,
2013-02-04 04:57:00,33.7,3.9,29.82,SW,225,0.0,1.8,28,0.00,,,0.00,WUHU216HW,2013-02-04 11:57:00,
2013-02-04 05:02:00,33.7,3.9,29.82,SSE,158,0.0,0.4,28,0.00,,,0.00,WUHU216HW,2013-02-04 12:02:00,
2013-02-04 05:07:00,33.3,3.5,29.82,SW,225,0.4,0.4,28,0.00,,,0.00,WUHU216HW,2013-02-04 12:07:00,
2013-02-04 05:12:00,32.9,3.3,29.82,South,180,0.0,1.6,28,0.00,,,0.00,WUHU216HW,2013-02-04 12:12:00,
2013-02-04 05:17:00,32.8,4.0,29.82,SW,225,0.7,2.0,29,0.00,,,0.00,WUHU216HW,2013-02-04 12:17:00,
2013-02-04 05:22:00,32.8,4.0,29.82,SW,225,0.0,3.1,29,0.00,,,0.00,WUHU216HW,2013-02-04 12:22:00,
2013-02-04 05:27:00,32.8,4.0,29.82,West,270,0.2,3.1,29,0.00,,,0.00,WUHU216HW,2013-02-04 12:27:00,
2013-02-04 05:32:00,32.8,4.0,29.82,WSW,248,0.4,1.8,29,0.00,,,0.00,WUHU216HW,2013-02-04 12:32:00,
2013-02-04 05:37:00,32.8,4.8,29.82,WSW,248,1.8,1.8,30,0.00,,,0.00,WUHU216HW,2013-02-04 12:37:00,
2013-02-04 05:42:00,32.9,5.0,29.82,West,270,0.4,2.2,30,0.00,,,0.00,WUHU216HW,2013-02-04 12:42:00,
2013-02-04 05:47:00,32.9,4.1,29.82,SW,225,0.0,2.2,29,0.00,,,0.00,WUHU216HW,2013-02-04 12:47:00,
2013-02-04 05:52:00,32.9,4.1,29.82,SW,225,0.2,1.8,29,0.00,,,0.00,WUHU216HW,2013-02-04 12:52:00,
2013-02-04 05:57:00,32.9,4.1,29.82,SSW,203,2.5,2.5,29,0.00,,,0.00,WUHU216HW,2013-02-04 12:57:00,
2013-02-04 06:02:00,33.1,4.2,29.82,West,270,1.8,3.1,29,0.00,,,0.00,WUHU216HW,2013-02-04 13:02:00,
2013-02-04 06:07:00,32.9,5.0,29.82,SSE,158,0.4,3.1,30,0.00,,,0.00,WUHU216HW,2013-02-04 13:07:00,
2013-02-04 06:12:00,32.8,4.8,29.82,SSE,158,0.9,1.1,30,0.00,,,0.00,WUHU216HW,2013-02-04 13:12:00,
2013-02-04 06:17:00,32.6,4.6,29.82,SSW,203,1.3,2.5,30,0.00,,,0.00,WUHU216HW,2013-02-04 13:17:00,
2013-02-04 06:22:00,32.6,4.6,29.82,WSW,248,0.0,2.5,30,0.00,,,0.00,WUHU216HW,2013-02-04 13:22:00,
2013-02-04 06:27:00,32.6,4.6,29.82,WSW,248,0.4,1.8,30,0.00,,,0.00,WUHU216HW,2013-02-04 13:27:00,
2013-02-04 06:32:00,32.8,4.8,29.82,WSW,248,0.9,1.1,30,0.00,,,0.00,WUHU216HW,2013-02-04 13:32:00,
2013-02-04 06:37:00,33.1,5.1,29.82,SW,225,0.4,1.1,30,0.00,,,0.00,WUHU216HW,2013-02-04 13:37:00,
2013-02-04 06:42:00,33.1,5.1,29.82,SSE,158,0.4,1.1,30,0.00,,,0.00,WUHU216HW,2013-02-04 13:42:00,
2013-02-04 06:47:00,33.1,5.1,29.82,WNW,293,0.0,2.2,30,0.00,,,0.00,WUHU216HW,2013-02-04 13:47:00,
2013-02-04 06:52:00,32.8,5.4,29.82,West,270,0.2,2.2,31,0.00,,,0.00,WUHU216HW,2013-02-04 13:52:00,
2013-02-04 06:57:00,32.8,5.4,29.82,NNW,338,0.4,1.8,31,0.00,,,0.00,WUHU216HW,2013-02-04 13:57:00,
2013-02-04 07:02:00,32.6,5.2,29.82,South,180,1.1,1.1,31,0.00,,,0.00,WUHU216HW,2013-02-04 14:02:00,
2013-02-04 07:07:00,32.4,5.1,29.82,SW,225,0.4,1.6,31,0.00,,,0.00,WUHU216HW,2013-02-04 14:07:00,
2013-02-04 07:12:00,32.4,5.1,29.82,South,180,1.3,2.9,31,0.00,,,0.00,WUHU216HW,2013-02-04 14:12:00,
2013-02-04 07:17:00,32.9,5.6,29.82,SW,225,3.6,3.6,31,0.00,,,0.00,WUHU216HW,2013-02-04 14:17:00,
2013-02-04 07:22:00,33.3,6.0,29.82,North,0,0.0,3.6,31,0.00,,,0.00,WUHU216HW,2013-02-04 14:22:00,
2013-02-04 07:27:00,33.3,6.0,29.82,SSE,158,2.5,3.1,31,0.00,,,0.00,WUHU216HW,2013-02-04 14:27:00,
2013-02-04 07:32:00,33.1,5.8,29.82,SE,135,2.5,2.9,31,0.00,,,0.00,WUHU216HW,2013-02-04 14:32:00,
2013-02-04 07:37:00,34.6,6.3,29.81,WSW,248,2.0,4.3,30,0.00,,,0.00,WUHU216HW,2013-02-04 14:37:00,
2013-02-04 07:42:00,36.9,7.5,29.81,SSE,158,1.1,5.4,29,0.00,,,0.00,WUHU216HW,2013-02-04 14:42:00,
2013-02-04 07:47:00,38.0,6.7,29.81,West,270,2.5,5.4,27,0.00,,,0.00,WUHU216HW,2013-02-04 14:47:00,
2013-02-04 07:52:00,39.2,7.7,29.81,West,270,4.7,4.7,27,0.00,,,0.00,WUHU216HW,2013-02-04 14:52:00,
2013-02-04 07:57:00,40.0,8.4,29.81,WSW,248,0.4,4.7,27,0.00,,,0.00,WUHU216HW,2013-02-04 14:57:00,
2013-02-04 08:02:00,40.1,6.8,29.81,SSW,203,4.7,4.7,25,0.00,,,0.00,WUHU216HW,2013-02-04 15:02:00,
2013-02-04 08:07:00,40.3,6.9,29.81,WSW,248,3.4,4.7,25,0.00,,,0.00,WUHU216HW,2013-02-04 15:07:00,
2013-02-04 08:12:00,40.3,6.9,29.81,SSE,158,2.0,4.5,25,0.00,,,0.00,WUHU216HW,2013-02-04 15:12:00,
2013-02-04 08:17:00,40.5,7.1,29.81,SSE,158,0.0,2.0,25,0.00,,,0.00,WUHU216HW,2013-02-04 15:17:00,
2013-02-04 08:22:00,40.7,7.2,29.81,SSW,203,0.4,3.1,25,0.00,,,0.00,WUHU216HW,2013-02-04 15:22:00,
2013-02-04 08:27:00,41.0,8.5,29.81,NNE,23,0.0,3.1,26,0.00,,,0.00,WUHU216HW,2013-02-04 15:27:00,
2013-02-04 08:32:00,40.7,9.0,29.81,SE,135,0.0,2.5,27,0.00,,,0.00,WUHU216HW,2013-02-04 15:32:00,
2013-02-04 08:37:00,40.3,8.7,29.81,NNE,23,2.5,3.1,27,0.00,,,0.00,WUHU216HW,2013-02-04 15:37:00,
2013-02-04 08:42:00,40.1,8.6,29.81,NE,45,0.2,3.1,27,0.00,,,0.00,WUHU216HW,2013-02-04 15:42:00,
2013-02-04 08:47:00,40.3,8.7,29.81,SE,135,0.0,1.8,27,0.00,,,0.00,WUHU216HW,2013-02-04 15:47:00,
2013-02-04 08:52:00,40.9,9.2,29.81,SSE,158,1.3,1.3,27,0.00,,,0.00,WUHU216HW,2013-02-04 15:52:00,
2013-02-04 08:57:00,41.4,9.6,29.81,ESE,113,3.8,3.8,27,0.00,,,0.00,WUHU216HW,2013-02-04 15:57:00,
2013-02-04 09:02:00,41.4,8.7,29.81,ESE,113,3.1,3.8,26,0.00,,,0.00,WUHU216HW,2013-02-04 16:02:00,
2013-02-04 09:07:00,41.2,9.6,29.80,WSW,248,0.9,4.7,27,0.00,,,0.00,WUHU216HW,2013-02-04 16:07:00,
2013-02-04 09:12:00,41.4,9.6,29.80,West,270,0.2,4.7,27,0.00,,,0.00,WUHU216HW,2013-02-04 16:12:00,
2013-02-04 09:17:00,41.6,9.8,29.80,West,270,1.1,1.1,27,0.00,,,0.00,WUHU216HW,2013-02-04 16:17:00,
2013-02-04 09:22:00,41.8,9.9,29.80,SSE,158,0.4,1.6,27,0.00,,,0.00,WUHU216HW,2013-02-04 16:22:00,
2013-02-04 09:27:00,41.8,9.9,29.80,WSW,248,0.9,1.6,27,0.00,,,0.00,WUHU216HW,2013-02-04 16:27:00,
2013-02-04 09:32:00,41.9,10.1,29.80,SSE,158,0.9,1.1,27,0.00,,,0.00,WUHU216HW,2013-02-04 16:32:00,
2013-02-04 09:37:00,41.8,9.9,29.80,South,180,1.1,1.8,27,0.00,,,0.00,WUHU216HW,2013-02-04 16:37:00,
2013-02-04 09:42:00,41.6,9.8,29.80,SW,225,0.0,1.8,27,0.00,,,0.00,WUHU216HW,2013-02-04 16:42:00,
2013-02-04 09:47:00,41.6,9.8,29.80,SSE,158,0.2,0.2,27,0.00,,,0.00,WUHU216HW,2013-02-04 16:47:00,
2013-02-04 09:52:00,42.7,8.8,29.80,ESE,113,4.0,4.3,25,0.00,,,0.00,WUHU216HW,2013-02-04 16:52:00,
2013-02-04 09:57:00,43.7,9.8,29.80,SSE,158,0.2,4.3,25,0.00,,,0.00,WUHU216HW,2013-02-04 16:57:00,
2013-02-04 10:02:00,45.2,11.1,29.80,ENE,68,1.8,4.0,25,0.00,,,0.00,WUHU216HW,2013-02-04 17:02:00,
2013-02-04 10:07:00,45.0,10.0,29.80,ESE,113,2.0,2.2,24,0.00,,,0.00,WUHU216HW,2013-02-04 17:07:00,
2013-02-04 10:12:00,44.3,9.4,29.81,ESE,113,0.4,2.2,24,0.00,,,0.00,WUHU216HW,2013-02-04 17:12:00,
2013-02-04 10:17:00,43.7,8.9,29.81,NW,315,1.1,3.8,24,0.00,,,0.00,WUHU216HW,2013-02-04 17:17:00,
2013-02-04 10:22:00,43.6,9.6,29.81,NE,45,0.0,3.8,25,0.00,,,0.00,WUHU216HW,2013-02-04 17:22:00,
2013-02-04 10:27:00,43.4,9.5,29.81,NNW,338,0.2,0.4,25,0.00,,,0.00,WUHU216HW,2013-02-04 17:27:00,
2013-02-04 10:32:00,43.2,9.4,29.81,North,0,0.2,1.1,25,0.00,,,0.00,WUHU216HW,2013-02-04 17:32:00,
2013-02-04 10:37:00,43.6,9.6,29.80,SSW,203,0.7,1.1,25,0.00,,,0.00,WUHU216HW,2013-02-04 17:37:00,
2013-02-04 10:42:00,45.0,11.8,29.81,SSE,158,0.4,1.1,26,0.00,,,0.00,WUHU216HW,2013-02-04 17:42:00,
2013-02-04 10:47:00,46.1,10.9,29.80,ESE,113,2.7,2.7,24,0.00,,,0.00,WUHU216HW,2013-02-04 17:47:00,
2013-02-04 10:52:00,46.4,8.5,29.80,NNE,23,2.5,7.2,21,0.00,,,0.00,WUHU216HW,2013-02-04 17:52:00,
2013-02-04 10:57:00,47.3,10.2,29.80,ESE,113,1.1,7.2,22,0.00,,,0.00,WUHU216HW,2013-02-04 17:57:00,
2013-02-04 11:02:00,48.2,6.0,29.80,WNW,293,7.8,11.4,18,0.00,,,0.00,WUHU216HW,2013-02-04 18:02:00,
2013-02-04 11:07:00,48.6,9.4,29.80,WSW,248,5.8,11.4,20,0.00,,,0.00,WUHU216HW,2013-02-04 18:07:00,
2013-02-04 11:12:00,49.0,9.6,29.80,ENE,68,1.3,6.7,20,0.00,,,0.00,WUHU216HW,2013-02-04 18:12:00,
2013-02-04 11:17:00,49.1,6.9,29.80,North,0,1.6,6.3,18,0.00,,,0.00,WUHU216HW,2013-02-04 18:17:00,
2013-02-04 11:22:00,49.1,6.9,29.80,WSW,248,1.3,6.5,18,0.00,,,0.00,WUHU216HW,2013-02-04 18:22:00,
2013-02-04 11:27:00,49.1,6.9,29.79,SSW,203,4.0,9.6,18,0.00,,,0.00,WUHU216HW,2013-02-04 18:27:00,
2013-02-04 11:32:00,49.1,6.9,29.79,WSW,248,8.3,9.6,18,0.00,,,0.00,WUHU216HW,2013-02-04 18:32:00,
2013-02-04 11:37:00,49.5,10.2,29.79,West,270,5.1,9.2,20,0.00,,,0.00,WUHU216HW,2013-02-04 18:37:00,
2013-02-04 11:42:00,49.5,7.1,29.79,WNW,293,5.8,12.8,18,0.00,,,0.00,WUHU216HW,2013-02-04 18:42:00,
2013-02-04 11:47:00,49.3,7.0,29.79,SW,225,2.0,12.8,18,0.00,,,0.00,WUHU216HW,2013-02-04 18:47:00,
2013-02-04 11:52:00,49.5,7.1,29.79,West,270,4.9,12.1,18,0.00,,,0.00,WUHU216HW,2013-02-04 18:52:00,
2013-02-04 11:57:00,49.3,5.5,29.79,NW,315,4.5,9.2,17,0.00,,,0.00,WUHU216HW,2013-02-04 18:57:00,
2013-02-04 12:02:00,49.3,5.5,29.79,WSW,248,6.0,9.2,17,0.00,,,0.00,WUHU216HW,2013-02-04 19:02:00,
2013-02-04 12:07:00,49.7,7.3,29.78,SSW,203,3.8,10.3,18,0.00,,,0.00,WUHU216HW,2013-02-04 19:07:00,
2013-02-04 12:12:00,50.0,6.1,29.78,South,180,1.1,10.3,17,0.00,,,0.00,WUHU216HW,2013-02-04 19:12:00,
2013-02-04 12:17:00,49.9,6.0,29.78,WSW,248,6.3,7.6,17,0.00,,,0.00,WUHU216HW,2013-02-04 19:17:00,
2013-02-04 12:22:00,49.7,5.8,29.78,WNW,293,6.0,11.9,17,0.00,,,0.00,WUHU216HW,2013-02-04 19:22:00,
2013-02-04 12:27:00,50.0,6.1,29.77,SW,225,4.7,11.9,17,0.00,,,0.00,WUHU216HW,2013-02-04 19:27:00,
2013-02-04 12:32:00,50.0,6.1,29.77,WNW,293,5.8,9.2,17,0.00,,,0.00,WUHU216HW,2013-02-04 19:32:00,
2013-02-04 12:37:00,50.4,6.4,29.77,North,0,7.8,9.2,17,0.00,,,0.00,WUHU216HW,2013-02-04 19:37:00,
2013-02-04 12:42:00,50.2,6.2,29.76,West,270,8.3,9.2,17,0.00,,,0.00,WUHU216HW,2013-02-04 19:42:00,
2013-02-04 12:47:00,50.0,6.1,29.76,ENE,68,5.4,9.2,17,0.00,,,0.00,WUHU216HW,2013-02-04 19:47:00,
2013-02-04 12:52:00,49.9,7.5,29.76,WSW,248,3.8,11.6,18,0.00,,,0.00,WUHU216HW,2013-02-04 19:52:00,
2013-02-04 12:57:00,50.4,7.9,29.75,South,180,6.5,11.6,18,0.00,,,0.00,WUHU216HW,2013-02-04 19:57:00,
2013-02-04 13:02:00,51.1,11.5,29.75,SSE,158,4.7,6.5,20,0.00,,,0.00,WUHU216HW,2013-02-04 20:02:00,
2013-02-04 13:07:00,51.5,11.8,29.75,SSE,158,0.4,4.7,20,0.00,,,0.00,WUHU216HW,2013-02-04 20:07:00,
2013-02-04 13:12:00,51.8,10.5,29.75,WSW,248,2.7,4.9,19,0.00,,,0.00,WUHU216HW,2013-02-04 20:12:00,
2013-02-04 13:17:00,51.7,7.4,29.74,NNE,23,19.2,19.2,17,0.00,,,0.00,WUHU216HW,2013-02-04 20:17:00,
2013-02-04 13:22:00,51.8,9.0,29.74,SW,225,3.6,19.2,18,0.00,,,0.00,WUHU216HW,2013-02-04 20:22:00,
2013-02-04 13:27:00,52.4,9.5,29.74,WNW,293,3.8,7.2,18,0.00,,,0.00,WUHU216HW,2013-02-04 20:27:00,
2013-02-04 13:32:00,52.4,9.5,29.74,SSW,203,3.1,3.8,18,0.00,,,0.00,WUHU216HW,2013-02-04 20:32:00,
2013-02-04 13:37:00,52.4,7.9,29.73,ESE,113,2.5,4.7,17,0.00,,,0.00,WUHU216HW,2013-02-04 20:37:00,
2013-02-04 13:42:00,52.4,9.5,29.74,SSE,158,1.1,4.7,18,0.00,,,0.00,WUHU216HW,2013-02-04 20:42:00,
2013-02-04 13:47:00,52.9,9.9,29.73,ESE,113,7.2,7.2,18,0.00,,,0.00,WUHU216HW,2013-02-04 20:47:00,
2013-02-04 13:52:00,53.1,7.0,29.73,NW,315,5.8,9.2,16,0.00,,,0.00,WUHU216HW,2013-02-04 20:52:00,
2013-02-04 13:57:00,53.5,8.8,29.74,SW,225,4.7,9.4,17,0.00,,,0.00,WUHU216HW,2013-02-04 20:57:00,
2013-02-04 14:02:00,54.2,6.4,29.73,SSW,203,5.6,9.4,15,0.00,,,0.00,WUHU216HW,2013-02-04 21:02:00,
2013-02-04 14:07:00,53.6,5.9,29.73,WSW,248,1.8,8.5,15,0.00,,,0.00,WUHU216HW,2013-02-04 21:07:00,
2013-02-04 14:12:00,53.6,4.4,29.73,SSW,203,11.0,11.0,14,0.00,,,0.00,WUHU216HW,2013-02-04 21:12:00,
2013-02-04 14:17:00,52.9,3.9,29.72,WSW,248,6.0,14.1,14,0.00,,,0.00,WUHU216HW,2013-02-04 21:17:00,
2013-02-04 14:22:00,52.4,5.0,29.73,WSW,248,4.9,14.1,15,0.00,,,0.00,WUHU216HW,2013-02-04 21:22:00,
2013-02-04 14:27:00,51.8,4.5,29.73,SSW,203,9.8,12.8,15,0.00,,,0.00,WUHU216HW,2013-02-04 21:27:00,
2013-02-04 14:32:00,51.5,4.2,29.73,North,0,12.1,13.4,15,0.00,,,0.00,WUHU216HW,2013-02-04 21:32:00,
2013-02-04 14:37:00,50.8,5.1,29.73,WSW,248,12.5,14.3,16,0.00,,,0.00,WUHU216HW,2013-02-04 21:37:00,
2013-02-04 14:42:00,50.6,5.1,29.73,WNW,293,8.7,14.3,16,0.00,,,0.00,WUHU216HW,2013-02-04 21:42:00,
2013-02-04 14:47:00,50.6,6.5,29.73,West,270,9.6,15.4,17,0.00,,,0.00,WUHU216HW,2013-02-04 21:47:00,
2013-02-04 14:52:00,50.6,6.5,29.73,West,270,13.9,15.4,17,0.00,,,0.00,WUHU216HW,2013-02-04 21:52:00,
2013-02-04 14:58:00,50.4,6.4,29.72,SW,225,11.0,13.9,17,0.00,,,0.00,WUHU216HW,2013-02-04 21:58:00,
2013-02-04 15:03:00,50.6,6.5,29.72,East,90,1.1,13.0,17,0.00,,,0.00,WUHU216HW,2013-02-04 22:03:00,
2013-02-04 15:08:00,50.4,6.4,29.72,NNW,338,4.9,13.0,17,0.00,,,0.00,WUHU216HW,2013-02-04 22:08:00,
2013-02-04 15:13:00,50.2,7.7,29.72,SSW,203,5.8,11.4,18,0.00,,,0.00,WUHU216HW,2013-02-04 22:13:00,
2013-02-04 15:18:00,50.2,7.7,29.72,NW,315,7.6,9.2,18,0.00,,,0.00,WUHU216HW,2013-02-04 22:18:00,
2013-02-04 15:23:00,50.0,7.6,29.73,West,270,3.8,7.6,18,0.00,,,0.00,WUHU216HW,2013-02-04 22:23:00,
2013-02-04 15:28:00,50.2,7.7,29.73,ESE,113,2.0,6.3,18,0.00,,,0.00,WUHU216HW,2013-02-04 22:28:00,
2013-02-04 15:33:00,50.2,7.7,29.72,NW,315,3.4,4.7,18,0.00,,,0.00,WUHU216HW,2013-02-04 22:33:00,
2013-02-04 15:38:00,50.2,7.7,29.72,WNW,293,3.4,4.7,18,0.00,,,0.00,WUHU216HW,2013-02-04 22:38:00,
2013-02-04 15:43:00,50.4,7.9,29.72,SE,135,0.2,4.7,18,0.00,,,0.00,WUHU216HW,2013-02-04 22:43:00,
2013-02-04 15:48:00,50.8,8.2,29.73,SW,225,2.0,3.4,18,0.00,,,0.00,WUHU216HW,2013-02-04 22:48:00,
2013-02-04 15:53:00,50.6,8.0,29.73,WSW,248,0.7,2.2,18,0.00,,,0.00,WUHU216HW,2013-02-04 22:53:00,
2013-02-04 15:58:00,50.8,8.2,29.73,NNW,338,2.2,2.2,18,0.00,,,0.00,WUHU216HW,2013-02-04 22:58:00,
2013-02-04 16:03:00,50.8,8.2,29.73,SSE,158,0.4,2.2,18,0.00,,,0.00,WUHU216HW,2013-02-04 23:03:00,
2013-02-04 16:08:00,50.8,8.2,29.72,SSE,158,0.9,1.8,18,0.00,,,0.00,WUHU216HW,2013-02-04 23:08:00,
2013-02-04 16:13:00,50.8,8.2,29.73,West,270,0.0,1.8,18,0.00,,,0.00,WUHU216HW,2013-02-04 23:13:00,
2013-02-04 16:18:00,50.4,7.9,29.73,WSW,248,1.3,1.3,18,0.00,,,0.00,WUHU216HW,2013-02-04 23:18:00,
2013-02-04 16:23:00,50.0,7.6,29.73,NNW,338,1.6,2.7,18,0.00,,,0.00,WUHU216HW,2013-02-04 23:23:00,
2013-02-04 16:28:00,49.5,8.7,29.73,SW,225,2.7,3.4,19,0.00,,,0.00,WUHU216HW,2013-02-04 23:28:00,
2013-02-04 16:33:00,49.0,8.2,29.73,WSW,248,1.1,6.0,19,0.00,,,0.00,WUHU216HW,2013-02-04 23:33:00,
2013-02-04 16:38:00,48.6,7.8,29.74,WSW,248,0.4,6.0,19,0.00,,,0.00,WUHU216HW,2013-02-04 23:38:00,
2013-02-04 16:43:00,48.4,9.2,29.74,WSW,248,0.7,1.6,20,0.00,,,0.00,WUHU216HW,2013-02-04 23:43:00,
2013-02-04 16:48:00,47.9,8.7,29.74,South,180,0.7,2.0,20,0.00,,,0.00,WUHU216HW,2013-02-04 23:48:00,
2013-02-04 16:53:00,47.5,8.5,29.73,West,270,2.0,2.0,20,0.00,,,0.00,WUHU216HW,2013-02-04 23:53:00,
2013-02-04 16:58:00,47.3,9.2,29.73,SW,225,4.0,4.0,21,0.00,,,0.00,WUHU216HW,2013-02-04 23:58:00,
2013-02-04 17:03:00,47.2,9.1,29.74,SW,225,0.0,4.0,21,0.00,,,0.00,WUHU216HW,2013-02-05 00:03:00,
2013-02-04 17:08:00,47.0,9.8,29.74,WNW,293,1.8,4.0,22,0.00,,,0.00,WUHU216HW,2013-02-05 00:08:00,
2013-02-04 17:13:00,47.0,9.8,29.74,SSE,158,0.7,3.4,22,0.00,,,0.00,WUHU216HW,2013-02-05 00:13:00,
2013-02-04 17:18:00,46.8,9.7,29.75,WSW,248,0.0,3.4,22,0.00,,,0.00,WUHU216HW,2013-02-05 00:18:00,
2013-02-04 17:23:00,46.3,8.4,29.75,SSE,158,0.4,1.1,21,0.00,,,0.00,WUHU216HW,2013-02-05 00:23:00,
2013-02-04 17:28:00,45.7,7.9,29.75,NNW,338,1.6,1.6,21,0.00,,,0.00,WUHU216HW,2013-02-05 00:28:00,
2013-02-04 17:33:00,45.4,8.6,29.76,SSE,158,0.4,1.6,22,0.00,,,0.00,WUHU216HW,2013-02-05 00:33:00,
2013-02-04 17:38:00,44.8,8.1,29.76,NW,315,1.6,1.6,22,0.00,,,0.00,WUHU216HW,2013-02-05 00:38:00,
2013-02-04 17:43:00,44.3,7.6,29.76,SE,135,2.0,2.0,22,0.00,,,0.00,WUHU216HW,2013-02-05 00:43:00,
2013-02-04 17:48:00,43.6,7.8,29.76,WSW,248,0.4,2.0,23,0.00,,,0.00,WUHU216HW,2013-02-05 00:48:00,
2013-02-04 17:53:00,43.2,7.6,29.76,SSE,158,1.3,1.8,23,0.00,,,0.00,WUHU216HW,2013-02-05 00:53:00,
2013-02-04 17:58:00,42.7,7.9,29.77,West,270,1.8,3.1,24,0.00,,,0.00,WUHU216HW,2013-02-05 00:58:00,
2013-02-04 18:03:00,42.3,7.7,29.77,SSE,158,2.7,3.1,24,0.00,,,0.00,WUHU216HW,2013-02-05 01:03:00,
2013-02-04 18:08:00,41.9,8.3,29.77,South,180,1.8,3.1,25,0.00,,,0.00,WUHU216HW,2013-02-05 01:08:00,
2013-02-04 18:13:00,42.1,10.3,29.78,WSW,248,1.8,3.1,27,0.00,,,0.00,WUHU216HW,2013-02-05 01:13:00,
2013-02-04 18:18:00,42.3,10.4,29.78,West,270,0.7,2.5,27,0.00,,,0.00,WUHU216HW,2013-02-05 01:18:00,
2013-02-04 18:23:00,42.3,10.4,29.78,SW,225,0.0,1.8,27,0.00,,,0.00,WUHU216HW,2013-02-05 01:23:00,
2013-02-04 18:28:00,42.1,10.3,29.78,SSW,203,0.7,1.8,27,0.00,,,0.00,WUHU216HW,2013-02-05 01:28:00,
2013-02-04 18:33:00,41.6,10.7,29.78,West,270,0.7,1.8,28,0.00,,,0.00,WUHU216HW,2013-02-05 01:33:00,
2013-02-04 18:38:00,41.9,12.8,29.79,WSW,248,5.4,7.8,30,0.00,,,0.00,WUHU216HW,2013-02-05 01:38:00,
2013-02-04 18:43:00,43.2,13.9,29.79,West,270,0.7,7.8,30,0.00,,,0.00,WUHU216HW,2013-02-05 01:43:00,
2013-02-04 18:48:00,43.6,13.2,29.79,WNW,293,3.8,5.1,29,0.00,,,0.00,WUHU216HW,2013-02-05 01:48:00,
2013-02-04 18:53:00,43.2,13.0,29.79,SSE,158,1.8,3.8,29,0.00,,,0.00,WUHU216HW,2013-02-05 01:53:00,
2013-02-04 18:58:00,42.8,12.6,29.79,ESE,113,6.3,6.3,29,0.00,,,0.00,WUHU216HW,2013-02-05 01:58:00,
2013-02-04 19:03:00,41.9,11.9,29.78,NNW,338,0.2,6.3,29,0.00,,,0.00,WUHU216HW,2013-02-05 02:03:00,
2013-02-04 19:08:00,41.8,12.6,29.78,NNW,338,2.5,5.1,30,0.00,,,0.00,WUHU216HW,2013-02-05 02:08:00,
2013-02-04 19:13:00,41.9,11.9,29.77,West,270,2.5,3.4,29,0.00,,,0.00,WUHU216HW,2013-02-05 02:13:00,
2013-02-04 19:18:00,41.8,12.6,29.77,WNW,293,5.1,5.1,30,0.00,,,0.00,WUHU216HW,2013-02-05 02:18:00,
2013-02-04 19:23:00,41.8,12.6,29.77,NNW,338,1.1,7.2,30,0.00,,,0.00,WUHU216HW,2013-02-05 02:23:00,
2013-02-04 19:28:00,41.8,12.6,29.77,SSE,158,1.1,7.2,30,0.00,,,0.00,WUHU216HW,2013-02-05 02:28:00,
2013-02-04 19:33:00,41.8,11.7,29.77,SW,225,0.2,2.9,29,0.00,,,0.00,WUHU216HW,2013-02-05 02:33:00,
2013-02-04 19:38:00,41.6,11.6,29.77,SW,225,0.7,2.9,29,0.00,,,0.00,WUHU216HW,2013-02-05 02:38:00,
2013-02-04 19:43:00,41.2,11.4,29.77,West,270,0.0,1.8,29,0.00,,,0.00,WUHU216HW,2013-02-05 02:43:00,
2013-02-04 19:48:00,40.7,10.8,29.78,SSE,158,0.7,1.1,29,0.00,,,0.00,WUHU216HW,2013-02-05 02:48:00,
2013-02-04 19:53:00,40.1,10.4,29.78,East,90,3.6,4.0,29,0.00,,,0.00,WUHU216HW,2013-02-05 02:53:00,
2013-02-04 19:58:00,40.0,11.7,29.78,WSW,248,3.6,4.0,31,0.00,,,0.00,WUHU216HW,2013-02-05 02:58:00,
2013-02-04 20:03:00,40.7,12.4,29.77,WSW,248,0.4,5.1,31,0.00,,,0.00,WUHU216HW,2013-02-05 03:03:00,
2013-02-04 20:08:00,41.4,12.3,29.78,East,90,2.7,5.8,30,0.00,,,0.00,WUHU216HW,2013-02-05 03:08:00,
2013-02-04 20:13:00,41.8,12.6,29.78,South,180,1.8,5.8,30,0.00,,,0.00,WUHU216HW,2013-02-05 03:13:00,
2013-02-04 20:18:00,41.6,12.5,29.78,WSW,248,0.9,4.7,30,0.00,,,0.00,WUHU216HW,2013-02-05 03:18:00,
2013-02-04 20:23:00,41.4,12.3,29.77,South,180,4.7,6.3,30,0.00,,,0.00,WUHU216HW,2013-02-05 03:23:00,
2013-02-04 20:28:00,41.4,12.3,29.77,SW,225,2.9,6.7,30,0.00,,,0.00,WUHU216HW,2013-02-05 03:28:00,
2013-02-04 20:33:00,41.6,12.5,29.77,SSE,158,12.3,12.3,30,0.00,,,0.00,WUHU216HW,2013-02-05 03:33:00,
2013-02-04 20:38:00,41.4,12.3,29.77,SSW,203,8.1,12.3,30,0.00,,,0.00,WUHU216HW,2013-02-05 03:38:00,
2013-02-04 20:43:00,41.4,12.3,29.78,SSE,158,3.4,8.9,30,0.00,,,0.00,WUHU216HW,2013-02-05 03:43:00,
2013-02-04 20:48:00,41.2,12.3,29.78,SSE,158,1.6,8.9,30,0.00,,,0.00,WUHU216HW,2013-02-05 03:48:00,
2013-02-04 20:53:00,41.0,12.1,29.78,SSE,158,1.3,4.9,30,0.00,,,0.00,WUHU216HW,2013-02-05 03:53:00,
2013-02-04 20:58:00,40.9,11.9,29.78,WSW,248,1.3,4.7,30,0.00,,,0.00,WUHU216HW,2013-02-05 03:58:00,
2013-02-04 21:03:00,40.7,12.4,29.77,West,270,3.4,6.0,31,0.00,,,0.00,WUHU216HW,2013-02-05 04:03:00,
2013-02-04 21:08:00,40.9,12.5,29.77,NW,315,1.8,6.0,31,0.00,,,0.00,WUHU216HW,2013-02-05 04:08:00,
2013-02-04 21:13:00,41.2,12.9,29.77,ESE,113,3.4,5.4,31,0.00,,,0.00,WUHU216HW,2013-02-05 04:13:00,
2013-02-04 21:18:00,41.2,12.9,29.77,SE,135,1.1,5.1,31,0.00,,,0.00,WUHU216HW,2013-02-05 04:18:00,
2013-02-04 21:23:00,41.2,12.9,29.78,WSW,248,2.2,5.1,31,0.00,,,0.00,WUHU216HW,2013-02-05 04:23:00,
2013-02-04 21:28:00,41.0,12.7,29.77,SSW,203,1.1,3.6,31,0.00,,,0.00,WUHU216HW,2013-02-05 04:28:00,
2013-02-04 21:33:00,40.9,12.5,29.78,SE,135,1.1,4.9,31,0.00,,,0.00,WUHU216HW,2013-02-05 04:33:00,
2013-02-04 21:38:00,40.9,12.5,29.78,South,180,1.1,4.9,31,0.00,,,0.00,WUHU216HW,2013-02-05 04:38:00,
2013-02-04 21:43:00,41.0,12.7,29.78,SW,225,5.6,9.8,31,0.00,,,0.00,WUHU216HW,2013-02-05 04:43:00,
2013-02-04 21:48:00,41.4,13.0,29.77,East,90,1.6,9.8,31,0.00,,,0.00,WUHU216HW,2013-02-05 04:48:00,
2013-02-04 21:53:00,41.2,12.9,29.77,SE,135,4.0,7.8,31,0.00,,,0.00,WUHU216HW,2013-02-05 04:53:00,
2013-02-04 21:58:00,41.2,12.9,29.77,SSW,203,4.7,7.8,31,0.00,,,0.00,WUHU216HW,2013-02-05 04:58:00,
2013-02-04 22:00:00,41.2,12.9,29.78,SE,135,1.8,7.8,31,0.00,,,0.00,WUHU216HW,2013-02-05 05:00:00,
2013-02-04 22:05:00,41.0,12.7,29.79,West,270,1.6,5.6,31,0.00,,,0.00,WUHU216HW,2013-02-05 05:05:00,
2013-02-04 22:10:00,41.0,12.7,29.79,SSE,158,4.9,5.6,31,0.00,,,0.00,WUHU216HW,2013-02-05 05:10:00,
2013-02-04 22:15:00,41.2,12.9,29.79,SE,135,2.5,4.9,31,0.00,,,0.00,WUHU216HW,2013-02-05 05:15:00,
2013-02-04 22:20:00,41.0,12.7,29.79,SSE,158,3.4,4.9,31,0.00,,,0.00,WUHU216HW,2013-02-05 05:20:00,
2013-02-04 22:25:00,41.0,12.7,29.79,SW,225,4.5,4.7,31,0.00,,,0.00,WUHU216HW,2013-02-05 05:25:00,
2013-02-04 22:30:00,41.0,12.7,29.80,SSE,158,4.9,4.9,31,0.00,,,0.00,WUHU216HW,2013-02-05 05:30:00,
2013-02-04 22:35:00,40.9,12.5,29.79,ESE,113,1.1,4.9,31,0.00,,,0.00,WUHU216HW,2013-02-05 05:35:00,
2013-02-04 22:40:00,40.7,12.4,29.80,SSE,158,2.2,2.2,31,0.00,,,0.00,WUHU216HW,2013-02-05 05:40:00,
2013-02-04 22:45:00,40.5,12.3,29.80,SW,225,2.2,2.2,31,0.00,,,0.00,WUHU216HW,2013-02-05 05:45:00,
2013-02-04 22:50:00,40.3,12.1,29.80,West,270,0.0,2.2,31,0.00,,,0.00,WUHU216HW,2013-02-05 05:50:00,
2013-02-04 22:55:00,40.0,11.7,29.80,West,270,0.0,1.8,31,0.00,,,0.00,WUHU216HW,2013-02-05 05:55:00,
2013-02-04 23:00:00,39.4,11.3,29.80,SW,225,0.0,1.8,31,0.00,,,0.00,WUHU216HW,2013-02-05 06:00:00,
2013-02-04 23:05:00,39.1,10.9,29.80,SSE,158,1.8,2.2,31,0.00,,,0.00,WUHU216HW,2013-02-05 06:05:00,
2013-02-04 23:10:00,38.5,11.1,29.80,WSW,248,1.3,2.5,32,0.00,,,0.00,WUHU216HW,2013-02-05 06:10:00,
2013-02-04 23:15:00,38.3,10.9,29.80,South,180,0.4,3.6,32,0.00,,,0.00,WUHU216HW,2013-02-05 06:15:00,
2013-02-04 23:20:00,38.5,11.7,29.81,SSE,158,1.8,3.6,33,0.00,,,0.00,WUHU216HW,2013-02-05 06:20:00,
2013-02-04 23:25:00,38.5,11.1,29.81,SE,135,2.7,3.8,32,0.00,,,0.00,WUHU216HW,2013-02-05 06:25:00,
2013-02-04 23:30:00,38.5,11.7,29.81,SSE,158,1.6,3.8,33,0.00,,,0.00,WUHU216HW,2013-02-05 06:30:00,
2013-02-04 23:35:00,38.3,11.6,29.81,WSW,248,1.6,2.9,33,0.00,,,0.00,WUHU216HW,2013-02-05 06:35:00,
2013-02-04 23:40:00,38.5,11.7,29.81,West,270,2.7,2.7,33,0.00,,,0.00,WUHU216HW,2013-02-05 06:40:00,
2013-02-04 23:45:00,38.2,11.4,29.81,WSW,248,0.4,2.7,33,0.00,,,0.00,WUHU216HW,2013-02-05 06:45:00,
2013-02-04 23:50:00,37.6,10.9,29.80,ESE,113,3.6,3.6,33,0.00,,,0.00,WUHU216HW,2013-02-05 06:50:00,
2013-02-04 23:55:00,37.4,10.8,29.80,SE,135,2.2,3.6,33,0.00,,,0.00,WUHU216HW,2013-02-05 06:55:00,